User: anonymous   Login
Location: Nag� el Ma?a??a
(24.0667°N, 32.8833°E)
Time: 03:24:40
(UTC+00:00)
Language:

FENGYUN 1C DEB - Orbit

View from above orbital plane
View from above orbital plane
View from above satellite
View from above satellite

Ground track
Ground track

The orbit data is extracted from the following two-line orbital elements,

1 31740U 99025CEP 22179.46545903  .00001140  00000-0  47713-3 0  9998
2 31740  99.8307 166.5438 0032258  64.3477  87.2773 14.28180099469721
Epoch (UTC): 28 June 2022 11:10:15
Eccentricity: 0.0032258
inclination: 99.8307°
perigee height: 774 km
apogee height: 821 km
right ascension of ascending node: 166.5438°
argument of perigee: 64.3477°
revolutions per day: 14.28180099
mean anomaly at epoch: 87.2773°
orbit number at epoch: 46972

The dashed part of the orbit path shows where the satellite is in the earth's shadow,  

DLR